Home > Weather > Kaunas > Past weeks

Flag for Lithuania Past Weather in Kaunas, Lithuania — Yesterday and Last 2 Weeks

Now
82 °F

Passing clouds.


Feels Like: 82 °F
Forecast: 64 / 80 °F
Wind: 12 mph from East

Location: Kaunas

Current Time: May 30, 2016 at 5:44:51 PM

Latest Report: May 30, 2016 at 5:20 PM


Visibility: N/A

Pressure: 29.92 "Hg

Humidity: 45%

Dew Point: 59 °F

Location of KaunasLocation

Past Weather in Kaunas — Graph

°F

Kaunas Temperature Yesterday

Maximum temperature yesterday: 81 °F (at 2:50 PM)
Minimum temperature yesterday: 55 °F (at 4:20 AM)
Average temperature yesterday: 69 °F

High & Low Weather Summary for the Past Weeks

 TemperatureHumidityPressure
High82 °F (May 30, 2:50 PM)100% (May 18, 6:20 AM)30.12 "Hg (May 18, 6:20 AM)
Low34 °F (May 18, 3:50 AM)31% (May 23, 5:20 PM)29.68 "Hg (May 15, 4:20 PM)
Average58 °F67%29.93 "Hg
* Reported May 15 4:20 PM — May 30 4:20 PM, Kaunas, Weather by CustomWeather, © 2016

Note: Actual official high and low records may vary slightly from our data, if they occured in-between our weather recording intervals... More about our weather records

Advertising

Kaunas Weather History for the Previous 24 Hours

Scroll right to see more
 ConditionsComfort  
Time TempWeatherWind HumidityBarometerVisibility
4:20 PM
Mon, May 30
82 °FPassing clouds.13 mph45%29.92 "HgN/A
3:50 PM82 °FScattered clouds.13 mph45%29.92 "HgN/A
3:20 PM82 °FBroken clouds.13 mph48%29.95 "HgN/A
2:50 PM82 °FPartly sunny.14 mph48%29.95 "HgN/A
2:20 PM81 °FBroken clouds.15 mph51%29.95 "HgN/A
1:50 PM81 °FBroken clouds.14 mph51%29.95 "HgN/A
1:20 PM81 °FBroken clouds.12 mph51%29.95 "HgN/A
12:50 PM79 °FScattered clouds.13 mph54%29.95 "HgN/A
12:20 PM79 °FScattered clouds.13 mph54%29.95 "HgN/A
11:50 AM77 °FPassing clouds.13 mph57%29.95 "HgN/A
11:20 AM77 °FPassing clouds.12 mph61%29.98 "HgN/A
10:50 AM75 °FPassing clouds.12 mph61%29.98 "HgN/A
10:20 AM73 °FPassing clouds.10 mph61%29.98 "HgN/A
9:50 AM72 °FPassing clouds.9 mph65%29.98 "HgN/A
9:20 AM72 °FPassing clouds.7 mph65%29.98 "HgN/A
8:50 AM70 °FPassing clouds.8 mph69%29.98 "HgN/A
8:20 AM68 °FSunny.10 mph69%29.98 "Hg10 mi
7:50 AM66 °FPassing clouds.9 mph73%29.98 "HgN/A
7:20 AM64 °FPassing clouds.9 mph78%29.98 "HgN/A
6:50 AM64 °FPassing clouds.9 mph73%29.98 "HgN/A
6:20 AM63 °FSunny.8 mph77%29.98 "Hg10 mi
5:50 AM63 °FClear.7 mph77%29.98 "Hg10 mi
5:20 AM63 °FClear.6 mph77%29.98 "Hg10 mi
4:50 AM61 °FPassing clouds.5 mph83%29.98 "HgN/A
4:20 AM63 °FPassing clouds.5 mph77%29.98 "HgN/A
3:50 AM61 °FPassing clouds.6 mph83%29.98 "HgN/A
3:20 AM61 °FPassing clouds.6 mph83%29.98 "HgN/A
2:50 AM63 °FMild.7 mph77%29.98 "HgN/A
2:20 AM64 °FMild.7 mph78%30.01 "HgN/A
1:50 AM66 °FMild.9 mph73%29.98 "HgN/A
1:20 AM64 °FMild.6 mph78%30.01 "HgN/A
12:50 AM66 °FMild.7 mph73%29.98 "HgN/A
12:20 AM64 °FMild.5 mph78%30.01 "Hg6 mi
11:50 PM
Sun, May 29
64 °FClear.6 mph78%30.01 "Hg10 mi
11:20 PM66 °FClear.7 mph73%30.01 "Hg10 mi
10:50 PM66 °FClear.7 mph73%30.01 "Hg10 mi
10:20 PM68 °FSunny.8 mph64%30.01 "Hg10 mi
9:50 PM68 °FSunny.7 mph64%29.98 "Hg10 mi
9:20 PM72 °FSunny.8 mph57%29.98 "Hg10 mi
8:50 PM73 °FSunny.8 mph57%29.98 "Hg10 mi
8:20 PM75 °FSunny.10 mph50%29.98 "Hg10 mi
7:50 PM77 °FPassing clouds.9 mph51%29.98 "HgN/A
7:20 PM77 °FSunny.12 mph47%29.98 "Hg10 mi
6:50 PM79 °FPassing clouds.10 mph48%29.98 "HgN/A
6:20 PM79 °FPassing clouds.9 mph48%29.98 "HgN/A
5:50 PM77 °FSunny.12 mph44%29.98 "Hg10 mi
5:20 PM81 °FPassing clouds.14 mph39%29.98 "HgN/A
Weather by CustomWeather, © 2016

See weather overviewHow to use our weather pages